{"data":{"norad_id":59853,"epoch":"2026-09-21T07:43:34.158432Z","epoch_age_seconds":103452,"freshness":"FRESH","line1":"1 59853U 24097U   26264.32192313  .00000269  00000+0  19294-4 0  9991","line2":"2 59853  42.9999 249.7509 0001044 276.9449  83.1283 15.27576840131836","mean_motion":15.2757684,"eccentricity":0.0001044,"inclination_deg":42.9999,"raan_deg":249.7509,"arg_perigee_deg":276.9449,"mean_anomaly_deg":83.1283,"bstar":1.9294e-5,"rev_number":13183,"period_min":94.266943717214,"perigee_km":482.34224941649,"apogee_km":483.77486704905,"semimajor_km":6861.1955582328,"source":"CELESTRAK","updated_at":"2026-09-22T09:00:49.098891Z"}}